Welcome to the New NWS' Forecast!
Most changes are behind the scenes, but click here for differences you might notice.
Latest weather observations around

College Park Airport (KCGS)

Using English Units (Switch to International System of Units)
Date/ Time (EDT) Wind (mph) Vis. (mi) Weather Sky Cond. Temp (°F) Rel. Humidity Wind Chill (°F) Heat Index (°F) Pressure Precip. (in)
Air Dwpt 6 hour Altimeter (inHg) Sea level (inHg) 1 hr 3 hr 6 hr
Max Min
Notice The following observation data may not be complete
Aug 20 04:54   10 Partly Cloudy SCT032          %              
Aug 20 04:34 NNE 3 10 Mostly Cloudy BKN029 BKN035 69 65     89%     30.06        
Aug 20 02:54 Calm 10 Cloudy BKN018 OVC030 69 66     91%     30.05        
Aug 20 02:34 ENE 3 10 Cloudy OVC014 69 66     90%     30.05        
Aug 20 02:14 Calm 10 Cloudy OVC014 69 66     90%     30.05        
Aug 20 00:14 Calm 10 Clear CLR 70 67     91%     30.04        
Aug 19 23:14 Calm 10 Mostly Cloudy SCT016 BKN022 BKN049 71 67     89%   72 30.04        
Notice The following observation data may not be complete
Aug 19 22:14   10 Mostly Cloudy BKN013 BKN019 BKN060          %              
Aug 19 21:54 Calm 10 Mostly Cloudy BKN013 BKN017 BKN075 71 67     88%   72 30.04        
Notice The following observation data may not be complete
Aug 19 20:54   10 Partly Cloudy SCT049          %              
Aug 19 18:14 N 3 10 Clear CLR 79 66     65%   79 29.96        
Aug 19 17:14 N 6 10 Cloudy OVC033 80 67     65%   82 29.95        
Aug 19 16:34 NNW 7 10 Clear CLR 80 67     65%   82 29.94        
Aug 19 15:54 N 5 10 Partly Cloudy SCT032 80 67     64%   82 29.95        
Aug 19 13:14 Calm 10 Partly Cloudy SCT033 SCT041 SCT047 79 65     61%   80 29.94        
Aug 19 12:14 WNW 3 10 Partly Cloudy SCT033 SCT043 77 66     68%   78 29.94        
Aug 19 08:54 NNW 5 10 Mostly Cloudy BKN024 71 65     83%   72 29.93        
Notice The following observation data may not be complete
Aug 19 08:14   10 Cloudy OVC024          %              
Aug 19 07:34 Calm 10 Cloudy OVC020 69 65     87%     29.91        
Aug 19 06:14 NW 3 10 Partly Cloudy SCT018 SCT027 69 65     88%     29.89        
Notice The following observation data may not be complete
Aug 19 05:14   10 Clear CLR          %              
Aug 19 04:14 Calm 10 Cloudy SCT010 BKN014 OVC029 71 68     90%   72 29.86        
Notice The following observation data may not be complete
Aug 19 03:14   10 Mostly Cloudy SCT025 BKN031          %              
Aug 19 01:14 Calm 10 Cloudy SCT050 SCT065 OVC075 75 68     80%   76 29.85        
Aug 19 00:14 Calm 10 Clear CLR 72 68     87%   73 29.84        
Aug 18 23:54 Calm 10 Clear CLR 73 68     86%   74 29.84        
Aug 18 23:14 Calm 10 Clear CLR 77 67     70%   78 29.84        
Aug 18 21:14 Calm 10 Partly Cloudy SCT100 79 69     73%   80 29.85        
Aug 18 19:34 Calm 10 Partly Cloudy SCT039 82 69     66%   85 29.83        
Aug 18 16:54 WNW 5 10 Clear CLR 84 71     64%   89 29.81        
Aug 18 16:34 W 5 10 Clear CLR 84 71     64%   89 29.81        
Aug 18 15:14 WSW 5 10 Clear CLR 84 70     61%   89 29.84        
Aug 18 13:14 W 3 10 Clear CLR 83 69     63%   87 29.88        
Aug 18 12:54 W 8 10 Clear CLR 84 70     62%   88 29.88        
Aug 18 12:34 WSW 3 10 Clear CLR 84 71     64%   89 29.89        
Aug 18 12:14 WSW 3 10 Clear CLR 83 70     65%   87 29.89        
Notice The following observation data may not be complete
Aug 18 11:34   10 Clear CLR          %              
Aug 18 11:14 WSW 5 10 Clear CLR 83 70     65%   87 29.91        
Notice The following observation data may not be complete
Aug 18 10:54   10 Clear CLR          %              
Notice The following observation data may not be complete
Aug 18 10:34   10 Clear CLR          %              
Aug 18 08:14 Calm 10 Clear CLR 74 72     91%   76 29.93        
Aug 18 07:14 Calm 10 Clear CLR 72 71     96%   73 29.92        
Aug 18 05:54 Calm 10 Clear CLR 71 71     97%   73 29.92        
Aug 18 05:14 Calm 10 Clear CLR 72 70     95%   73 29.92        
Aug 18 04:54 Calm 10 Clear CLR 72 70     95%   73 29.92        
Aug 18 03:54 Calm 10 Partly Cloudy SCT075 72 70     94%   73 29.92        
Notice The following observation data may not be complete
Aug 18 02:34   10 Partly Cloudy SCT075 SCT090          %              
Aug 18 01:34 Calm 10 Clear CLR 73 71     95%   74 29.95        
Aug 17 22:54 Calm 10 Clear CLR 74 72     96%   75 29.95        
Aug 17 21:54 Calm 10 Clear CLR 74 72     96%   75 29.96        
Aug 17 21:34 Calm 7 Clear CLR 74 73     96%   76 29.96        
Notice The following observation data may not be complete
Aug 17 19:34 W 3 10 Partly Cloudy SCT070   72      %     29.97        
Aug 17 19:14 W 6 10 Mostly Cloudy SCT022 SCT038 BKN060 80 72     75%   84 29.97        
Notice The following observation data may not be complete
Aug 17 18:34   10 Clear CLR          %              
Notice The following observation data may not be complete
Aug 17 16:14   10 Clear CLR          %              
Aug 17 15:54 SSW 8 10 Partly Cloudy SCT049 92 71     51%   99 29.97        
Aug 17 15:34 S 8 10 Partly Cloudy SCT049 92 72     52%   99 29.98        
Aug 17 15:14 S 8 10 Clear CLR 91 71     52%   98 29.98        
Aug 17 14:54 SSW 6 10 Clear CLR 92 72     52%   100 29.98        
Aug 17 14:34 S 9 10 Clear CLR 91 71     52%   98 29.99        
Aug 17 14:14 S 5 10 Clear CLR 92 71     51%   99 30        
Aug 17 13:54 SSW 7 10 Clear CLR 92 71     51%   98 30        
Aug 17 13:34 S 5 10 Clear CLR 91 70     50%   96 30.01        
Aug 17 13:14 SSE 5 10 Clear CLR 90 71     53%   96 30.02        
Aug 17 12:54 SSW 6 10 Clear CLR 90 71     54%   96 30.02        
Aug 17 12:34 S 8 10 Clear CLR 89 71     54%   95 30.03        
Aug 17 12:14 S 5 10 Clear CLR 89 72     58%   96 30.04        
Aug 17 11:54 SSW 6 10 Clear CLR 88 72     60%   95 30.04        
Aug 17 11:34 SSE 5 10 Clear CLR 87 72     62%   94 30.05        
Aug 17 11:14 SE 5 10 Clear CLR 87 73     64%   95 30.05        
Aug 17 10:54 S 5 10 Clear CLR 85 73     67%   93 30.06        
Aug 17 10:34 S 3 10 Clear CLR 84 73     70%   91 30.06        
Aug 17 10:14 S 3 10 Clear CLR 83 73     72%   90 30.07        
Aug 17 09:54 SSE 5 10 Clear CLR 82 73     75%   88 30.06        
Aug 17 09:34 Calm 10 Clear CLR 81 73     75%   87 30.06        
Aug 17 09:14 Calm 10 Clear CLR 81 73     77%   86 30.07        
Aug 17 08:54 Calm 10 Partly Cloudy SCT120 80 73     79%   85 30.07        
Aug 17 08:34 SSE 5 10 Mostly Cloudy BKN120 79 73     81%   82 30.07        
Aug 17 08:14 Calm 10 Mostly Cloudy BKN120 78 72     84%   79 30.08        
Aug 17 07:54 Calm 7 Partly Cloudy SCT120 76 73     92%   77 30.08        
Aug 17 07:34 Calm 5 Clear CLR 72 71     96%   74 30.08        
Aug 17 07:14 Calm 5 Clear CLR 72 71     96%   74 30.08        
Aug 17 06:54 Calm 5 Clear CLR 72 71     95%   74 30.08        
Aug 17 06:34 Calm 7 Partly Cloudy SCT100 72 71     95%   74 30.08        
Aug 17 06:14 Calm 7 Partly Cloudy SCT110 72 71     95%   74 30.08        
Aug 17 05:54 Calm 7 Partly Cloudy SCT110 72 71     96%   74 30.07        
Aug 17 05:34 Calm 7 Mostly Cloudy BKN110 72 71     96%   74 30.07        
Aug 17 05:14 Calm 7 Partly Cloudy SCT110 72 71     96%   74 30.07        
Aug 17 04:54 Calm 7 Clear CLR 73 72     96%   74 30.08        
Aug 17 04:34 Calm 7 Clear CLR 73 72     96%   74 30.08        
Aug 17 04:14 Calm 7 Clear CLR 73 71     95%   74 30.08        
Aug 17 03:54 Calm 7 Clear CLR 73 72     95%   75 30.08        
Aug 17 03:34 Calm 7 Clear CLR 73 72     95%   75 30.08        
Aug 17 03:14 Calm 7 Clear CLR 73 72     94%   75 30.09        
Aug 17 02:54 Calm 7 Clear CLR 73 72     95%   75 30.08        
Aug 17 02:34 Calm 7 Clear CLR 73 72     95%   75 30.09        
Aug 17 02:14 Calm 10 Clear CLR 74 72     94%   75 30.09        
Aug 17 01:54 Calm 10 Clear CLR 73 72     95%   75 30.09        
Aug 17 01:34 Calm 10 Clear CLR 74 72     94%   75 30.09        
Aug 17 01:14 Calm 10 Clear CLR 74 72     94%   75 30.1        
Aug 17 00:54 Calm 10 Clear CLR 74 72     94%   76 30.11        
Aug 17 00:34 Calm 10 Clear CLR 74 72     92%   76 30.1        
Aug 17 00:14 Calm 10 Clear CLR 74 72     92%   76 30.1        
Aug 16 23:54 Calm 10 Clear CLR 75 72     90%   76 30.1        
Aug 16 23:34 Calm 10 Clear CLR 76 72     89%   77 30.1        
Aug 16 23:14 Calm 10 Clear CLR 76 72     88%   78 30.1        
Aug 16 22:54 Calm 10 Clear CLR 76 72     88%   78 30.09        
Aug 16 22:34 Calm 10 Clear CLR 77 72     86%   78 30.1        
Aug 16 22:14 Calm 10 Clear CLR 78 72     84%   79 30.1        
Aug 16 21:54 Calm 10 Clear CLR 81 72     73%   86 30.1        
Aug 16 21:34 Calm 10 Clear CLR 83 72     69%   88 30.09        
Aug 16 21:14 Calm 10 Partly Cloudy SCT055 83 72     69%   88 30.09        
Aug 16 20:54 S 3 10 Partly Cloudy SCT055 83 71     67%   88 30.08        
Aug 16 20:34 S 3 10 Clear CLR 84 71     64%   88 30.08        
Aug 16 20:14 S 5 10 Clear CLR 85 70     62%   89 30.07        
Aug 16 19:54 S 3 10 Clear CLR 85 70     60%   90 30.07        
Aug 16 19:34 S 5 10 Clear CLR 86 70     58%   90 30.06        
Aug 16 19:14 S 5 10 Partly Cloudy SCT065 87 70     57%   92 30.06        
Aug 16 18:54 S 5 10 Partly Cloudy SCT065 87 70     58%   92 30.06        
Aug 16 18:34 S 3 10 Clear CLR 88 70     56%   93 30.06        
Aug 16 18:14 Calm 10 Partly Cloudy SCT050 88 70     56%   93 30.05        
Aug 16 17:54 S 6 10 Partly Cloudy SCT050 SCT055 89 70     53%   95 30.05        
Aug 16 17:34 S 3 10 Mostly Cloudy SCT050 BKN055 88 69     54%   93 30.05        
Aug 16 17:14 S 7 10 Mostly Cloudy SCT050 BKN070 BKN080 90 69     51%   94 30.05        
Aug 16 16:54 S 5 10 Cloudy BKN055 BKN070 OVC085 89 68     51%   93 30.06        
Aug 16 16:34 SSE 6 10 Cloudy BKN055 BKN080 OVC090 89 67     49%   92 30.06        
Aug 16 16:14 SSE 3 10 Mostly Cloudy BKN055 BKN070 89 67     48%   92 30.06        
Aug 16 15:54 S 5 10 Mostly Cloudy BKN055 BKN075 89 66     47%   92 30.07        
Aug 16 15:34 S 3 10 Partly Cloudy SCT055 SCT065 91 67     47%   94 30.07        
Aug 16 15:14 SSW 5 10 Mostly Cloudy SCT055 BKN075 90 68     48%   94 30.07        
Aug 16 14:54 Calm 10 Partly Cloudy SCT055 SCT075 89 67     49%   92 30.08        
Aug 16 14:34 Calm 10 Partly Cloudy SCT050 89 68     50%   93 30.08        
Aug 16 14:14 SSW 3 10 Partly Cloudy SCT050 SCT075 89 68     51%   93 30.09        
Aug 16 13:54 S 7 10 Partly Cloudy SCT050 SCT070 89 67     47%   92 30.09        
Aug 16 13:34 SSW 6 10 Mostly Cloudy BKN050 BKN070 90 67     47%   93 30.09        
Aug 16 13:14 S 6 10 Partly Cloudy SCT050 89 67     49%   91 30.09        
Aug 16 12:54 SSE 6 10 Mostly Cloudy BKN048 BKN055 89 68     49%   93 30.09        
Aug 16 12:34 ESE 5 10 Partly Cloudy SCT046 87 69     54%   91 30.1        
Aug 16 12:14 SSE 3 10 Partly Cloudy SCT044 87 69     55%   92 30.1        
Aug 16 11:54 Calm 10 Clear CLR 87 68     54%   91 30.11        
Aug 16 11:34 Calm 10 Clear CLR 85 68     57%   89 30.11        
Aug 16 11:14 Calm 10 Clear CLR 85 67     56%   88 30.11        
Aug 16 10:54 Calm 10 Clear CLR 83 68     60%   87 30.11        
Aug 16 10:34 Calm 10 Clear CLR 83 70     63%   87 30.11        
Aug 16 10:14 Calm 10 Clear CLR 81 70     69%   85 30.11        
Aug 16 09:54 Calm 10 Clear CLR 80 70     71%   84 30.11        
Aug 16 09:34 Calm 10 Clear CLR 79 70     74%   82 30.1        
Aug 16 09:14 Calm 10 Clear CLR 78 72     80%   80 30.1        
Aug 16 08:54 Calm 10 Clear CLR 77 71     81%   79 30.1        
Aug 16 08:34 Calm 10 Clear CLR 76 71     86%   77 30.1        
Aug 16 08:14 Calm 10 Clear CLR 73 70     90%   74 30.09        
Aug 16 07:54 Calm 10 Clear CLR 71 69     92%   73 30.09        
Aug 16 07:34 Calm 7 Clear CLR 69 68     96%     30.09        
Aug 16 07:14 Calm 7 Clear CLR 69 67     95%     30.09        
Aug 16 06:54 Calm 7 Clear CLR 68 67     97%     30.08        
Aug 16 06:34 Calm 7 Clear CLR 68 67     96%     30.08        
Aug 16 06:14 Calm 7 Clear CLR 68 67     97%     30.07        
Aug 16 05:54 Calm 7 Clear CLR 68 67     96%     30.07        
Aug 16 05:34 Calm 7 Clear CLR 68 67     96%     30.07        
Aug 16 05:14 Calm 7 Clear CLR 68 67     97%     30.07        
Aug 16 04:54 Calm 7 Clear CLR 67 66     96%     30.06        
Aug 16 04:34 Calm 7 Clear CLR 68 67     96%     30.06        
Aug 16 04:14 Calm 7 Clear CLR 68 67     96%     30.06        
Aug 16 03:54 Calm 7 Clear CLR 68 67     97%     30.06        
Aug 16 03:34 Calm 7 Clear CLR 68 67     97%     30.05        
Aug 16 03:14 Calm 7 Clear CLR 69 67     96%     30.06        
Aug 16 02:54 Calm 7 Clear CLR 68 67     97%     30.06        
Aug 16 02:34 Calm 7 Clear CLR 69 67     96%     30.06        
Aug 16 02:14 Calm 7 Clear CLR 69 67     95%     30.06        
Aug 16 01:54 Calm 7 Clear CLR 69 67     95%     30.06        
Aug 16 01:34 Calm 10 Clear CLR 69 68     95%     30.06        
Aug 16 01:14 Calm 10 Clear CLR 69 68     95%     30.05        
Aug 16 00:54 Calm 10 Clear CLR 70 68     95%     30.06        
Aug 16 00:34 Calm 10 Clear CLR 70 68     93%     30.06        
Aug 16 00:14 Calm 10 Clear CLR 71 68     91%   72 30.05        
Aug 15 23:54 Calm 10 Clear CLR 71 68     91%   72 30.05        
Aug 15 23:34 Calm 10 Clear CLR 71 68     91%   72 30.05        
Aug 15 23:14 Calm 10 Clear CLR 72 68     88%   73 30.04        
Aug 15 22:54 Calm 10 Clear CLR 72 68     88%   73 30.04        
Aug 15 22:34 Calm 10 Clear CLR 72 68     87%   74 30.04        
Aug 15 22:14 Calm 10 Clear CLR 72 69     88%   74 30.04        
Aug 15 21:54 Calm 10 Clear CLR 73 69     88%   74 30.04        
Aug 15 21:34 Calm 10 Clear CLR 73 69     86%   74 30.03        
Aug 15 21:14 Calm 10 Clear CLR 74 68     83%   75 30.03        
Aug 15 20:54 Calm 10 Clear CLR 74 69     85%   75 30.02        
Aug 15 20:34 Calm 10 Clear CLR 75 69     81%   76 30.02        
Aug 15 20:14 Calm 10 Clear CLR 76 68     76%   77 30.02        
Aug 15 19:54 Calm 10 Clear CLR 78 68     71%   79 30.01        
Aug 15 19:34 Calm 10 Clear CLR 84 65     54%   86 30        
Aug 15 19:14 WNW 3 10 Clear CLR 84 65     53%   86 30        
Aug 15 18:54 Calm 10 Clear CLR 85 65     51%   86 30        
Aug 15 18:34 WNW 5 10 Clear CLR 85 65     50%   87 30        
Aug 15 18:14 W 3 10 Clear CLR 85 64     51%   86 30        
Aug 15 17:54 W 6 10 Clear CLR 85 64     49%   86 30.01        
Aug 15 17:34 WNW 7 10 Clear CLR 87 64     47%   88 30        
Aug 15 17:14 W 8 10 Partly Cloudy SCT060 87 65     47%   89 30        
Aug 15 16:54 W 7 10 Clear CLR 87 65     48%   89 30.01        
Aug 15 16:34 W 7 10 Clear CLR 87 63     45%   88 30.01        
Aug 15 16:14 WNW 9 10 Clear CLR 88 63     44%   89 30        
Aug 15 15:54 WNW 8 10 Partly Cloudy SCT055 88 65     46%   89 30        
May 15 12:37 S 5 10 Clear CLR 81 69     67%   84 29.91        
May 15 03:17 Calm 10 Clear CLR 65 62     90%     29.95        
May 14 13:37 Calm 7 Partly Cloudy SCT016 72 64     77%   72 30.02        
May 14 12:57 Calm 7 Mostly Cloudy BKN012 69 62     79%     30.02        
May 14 11:17 Calm 5 Cloudy OVC006 63 60     89%     30.03        
May 14 07:57 Calm 1.25 Cloudy OVC002 59 58     98%     30.03        
May 14 04:17 Calm 2.5 Cloudy OVC004 59 58     97%     29.98        
May 14 03:37 Calm 5 Cloudy OVC006 59 58     96%     29.97        
May 14 01:37 Calm 7 Cloudy OVC008 60 58     96%     30.02        
May 13 21:37 N 3 7 Cloudy OVC006 60 58     93%     30.05        
May 13 18:37 ESE 5 7 Cloudy OVC006 60 57     91%     30.02        
May 13 15:17 E 9 2.5 Cloudy OVC004 60 59     95%     30.06        
May 13 12:17 Calm 10 Cloudy BKN008 OVC013 67 63     89%     30.08        
May 12 21:57 Calm 7 Clear CLR 67 64     88%     30.03        
Notice The following observation data may not be complete
May 12 16:37   10 Clear CLR          %              
May 12 12:57 Calm 10 Clear CLR 79 63     59%   79 30.02        
May 12 01:17 Calm 10 Clear CLR 62 55     79%     30.04        
May 11 22:57 Calm 10 Partly Cloudy SCT100 62 56     80%     30.08        
May 11 22:17 Calm 10 Clear CLR 65 56     74%     30.07        
Notice The following observation data may not be complete
May 11 21:17 Calm 10 Clear CLR   54      %     30.05        
May 11 10:17 NW 8 10 Clear CLR 74 55     51%   74 30.02        
Notice The following observation data may not be complete
Jun 12 06:33   10 Mostly Cloudy BKN080          %              
Jun 12 03:33 Calm 10 Clear CLR 68 65     91%     30.05        
Notice The following observation data may not be complete
Jun 12 02:33 Calm 10 Clear CLR   67      %     30.05        
Jun 11 22:53 Calm 10 Clear CLR 75 65     72%   76 30.07        
Notice The following observation data may not be complete
Jun 11 21:13   10 Clear CLR          %              
Jun 11 06:13 Calm 10 Clear CLR 64 62     91%     30.1        
Notice The following observation data may not be complete
Jun 11 02:13   10 Clear CLR          %              
Notice The following observation data may not be complete
Jun 11 01:33 Calm 10 Clear CLR   61      %     30.07        
Jun 11 01:13 Calm 10 Clear CLR 69 61     77%     30.07        
Notice The following observation data may not be complete
Jun 11 00:13 Calm 10 Clear CLR   61      %     30.07        
Jun 10 22:33 Calm 10 Clear CLR 71 62     71%   72 30.07        
Notice The following observation data may not be complete
Jun 10 12:33   10 Clear CLR          %              
Jun 10 11:33 S 3 10 Clear CLR 82 53     36%   81 30.05        
Jun 10 09:33 Calm 10 Clear CLR 74 59     59%   74 30.04        
Notice The following observation data may not be complete
Jun 10 04:33 Calm 10 Clear CLR   56      %     29.98        
Jun 09 21:33 Calm 10 Clear CLR 67 54     62%     29.92        
Jun 09 17:33 WSW 5 10 Partly Cloudy SCT075 80 51     35%   80 29.84        
Jun 09 13:53 WNW 9 10 Partly Cloudy SCT065 SCT080 79 52     39%   78 29.85        
Notice The following observation data may not be complete
Jun 09 13:33   10 Mostly Cloudy BKN065          %              
Jun 09 12:53 WNW 9 10 Partly Cloudy SCT060 SCT070 77 52     41%   77 29.86        
Jun 09 09:53 WNW 9 10 Clear CLR 71 54     55%   70 29.85        
Notice The following observation data may not be complete
Jun 09 07:33   10 Clear CLR          %              
Jun 09 00:53 Calm 10 Clear CLR 54 51     90%     29.83        
Jun 08 15:53 N 5 10 Mostly Cloudy BKN075 72 47     42%   71 29.9        
Jun 08 14:53 NNE 7 10 Clear CLR 71 44     38%   70 29.92        
Jun 08 12:53 NE 8 10 Clear CLR 68 49     50%     29.96        
Jun 08 01:53 Calm 10 Clear CLR 51 50     97%     30.04        
Jun 07 22:53 Calm 10 Clear CLR 54 52     93%     30.05        
Jun 07 22:13 Calm 10 Clear CLR 54 52     92%     30.04        
Jun 07 11:53 NE 3 10 Cloudy SCT016 BKN023 OVC070 62 54     76%     29.99        
Jun 07 11:33 E 8 10 Cloudy BKN018 BKN023 OVC060 62 54     75%     29.98        
Jun 06 11:13 NW 9 10 Partly Cloudy SCT047 72 53     51%   71 29.76        
Notice The following observation data may not be complete
Jun 06 10:33   10 Clear CLR          %              
Jun 06 08:13 NNW 11 10 Partly Cloudy SCT025 69 59     71%     29.74        
Jun 06 07:13 NNW 6 10 Clear CLR 66 59     78%     29.72        
Notice The following observation data may not be complete
Jun 06 03:33   2.5 Mostly Cloudy BKN048          %              
Jun 06 00:13 Calm 3 Partly Cloudy SCT065 64 64     98%     29.68        
Notice The following observation data may not be complete
Jun 05 23:33   7 Clear CLR          %